Location: Albuquerque Trailhead
(34.7934°N, 106.3736°W)
Time: 00:18:51
(UTC+00:00)

Cosmos 1850 Rocket - Pass Details

Date: 20 June 2021
Orbit: 755 x 785 km, 74.0° (Epoch: 01 August)

Event Time Altitude Azimuth Distance (km) Brightness Sun altitude
Rises 03:39:59 0° 348° (NNW) 3,261 8.2 -13.8°
Reaches altitude 10° 03:42:28 10° 354° (N) 2,325 7.2 -14.2°
Maximum altitude 03:47:35 50° 70° (ENE) 970 4.3 -15.0°
Enters shadow 03:50:27 24° 134° (SE) 1,529 4.9 -15.4°
